Location: Unspecified
(0.0000°N, 0.0000°E)
Time: 00:53:14
(UTC+00:00)

ISS - Pass Details

Date: 20 February 2019
Orbit: 403 x 411 km, 51.6° (Epoch: 16 February)

Event Time Altitude Azimuth Distance (km) Brightness Sun altitude
Exits shadow 04:46:49 67° 86° (E) 439 -3.6 -21.3°
Drops below altitude 10° 04:49:47 10° 41° (NE) 1,445 -0.7 -20.6°
Sets 04:51:51 0° 39° (NE) 2,300 0.4 -20.1°
